Home   Weather   Youngstown   Past weeks
Flag for USA

Past Weather in Youngstown, Ohio, USA — Yesterday and Last 2 Weeks

Now
40 °F

Light rain. Overcast.


Feels Like: 34 °F
Forecast: 46 / 32 °F
Wind: 9 mph from South

Location: Youngstown-Warren Regional Airport

Current Time: Jan 23, 2019 at 4:32:38 am

Latest Report: Jan 23, 2019 at 3:51 am


Visibility: 10 mi

Pressure: 30.05 "Hg

Humidity: 51%

Dew Point: 23 °F

Location of YoungstownLocation

Past Weather in Youngstown — Graph

°F

Youngstown Temperature Yesterday

Maximum temperature yesterday: 37 °F (at 11:51 pm)
Minimum temperature yesterday: -2 °F (at 4:51 am)
Average temperature yesterday: 18 °F

High & Low Weather Summary for the Past Weeks

 TemperatureHumidityPressure
High58 °F (Jan 8, 2:51 pm)100% (Jan 18, 4:51 am)30.66 "Hg (Jan 18, 4:51 am)
Low-2 °F (Jan 22, 4:51 am)39% (Jan 22, 2:51 pm)29.52 "Hg (Jan 20, 1:14 am)
Average25 °F79%30.14 "Hg
* Reported Jan 8 2:51 am — Jan 23 2:51 am, Youngstown. Weather by CustomWeather, © 2019

Note: Actual official high and low records may vary slightly from our data, if they occured in-between our weather recording intervals... More about our weather records

Advertising

Youngstown Weather History for the Previous 24 Hours

Scroll right to see more
 ConditionsComfort  
Time TempWeatherWind HumidityBarometerVisibility
2:51 am
Wed, Jan 23
38 °FLight rain. Mostly cloudy.10 mph51%30.07 "Hg10 mi
1:51 am37 °FMostly cloudy.12 mph48%30.08 "Hg10 mi
12:51 am38 °FMostly cloudy.10 mph45%30.11 "Hg10 mi
11:51 pm
Tue, Jan 22
37 °FMostly cloudy.12 mph42%30.16 "Hg10 mi
10:51 pm36 °FOvercast.14 mph40%30.19 "Hg10 mi
9:51 pm34 °FMostly cloudy.14 mph40%30.23 "Hg10 mi
8:51 pm33 °FOvercast.13 mph40%30.25 "Hg10 mi
7:51 pm31 °FOvercast.13 mph41%30.28 "Hg10 mi
6:51 pm30 °FMostly cloudy.13 mph41%30.30 "Hg10 mi
5:51 pm29 °FMostly cloudy.14 mph41%30.31 "Hg10 mi
4:51 pm29 °FOvercast.12 mph41%30.34 "Hg10 mi
3:51 pm29 °FOvercast.12 mph39%30.37 "Hg10 mi
2:51 pm28 °FHigh level clouds.14 mph39%30.40 "Hg10 mi
1:51 pm26 °FOvercast.12 mph40%30.43 "Hg10 mi
12:51 pm23 °FMostly cloudy.8 mph48%30.47 "Hg10 mi
11:51 am19 °FOvercast.13 mph52%30.50 "Hg10 mi
10:51 am14 °FMostly cloudy.12 mph61%30.54 "Hg10 mi
9:51 am10 °FMostly cloudy.13 mph69%30.57 "Hg10 mi
8:51 am7 °FMostly cloudy.12 mph73%30.59 "Hg9 mi
7:51 am4 °FPartly sunny.9 mph80%30.61 "Hg10 mi
6:51 am4 °FPassing clouds.6 mph80%30.63 "Hg10 mi
5:51 am-1 °FPassing clouds.3 mph82%30.62 "Hg10 mi
4:51 am-2 °FPassing clouds.8 mph86%30.61 "Hg10 mi
Weather by CustomWeather, © 2019

See weather overview